Weather History for Orange City, IA

Change the Weather History Date:

Wednesday, November 21, 2012

  Actual Average Record
Temperature  
Mean Temperature 55 °F -  
Max Temperature 71 °F 40 °F 71 °F (2012)
Min Temperature 39 °F 24 °F 5 °F (2000)
Degree Days  
Heating Degree Days 10    
Growing Degree Days 5 (Base 50)    
Moisture  
Dew Point 37 °F    
Average Humidity 56    
Maximum Humidity 81    
Minimum Humidity 25    
Precipitation  
Precipitation 0.00 in - - ()
Sea Level Pressure  
Sea Level Pressure 29.89 in    
Wind  
Wind Speed 13 mph (SSW)    
Max Wind Speed 28 mph    
Max Gust Speed 32 mph    
Visibility 10 miles    
Events      
Averages and records for this station are not official NWS values.
T = Trace of Precipitation, MM = Missing Value Source: NWS Daily Summary

Daily Weather History Graph

Daily Weather History Graph

Search for Another Location

Airport:

Trip Planner

Search our weather history database for the weather conditions in past years. The results will help you decide how hot, cold, wet, or windy it might be!

Date:

Astronomy

Nov. 21, 2012 Rise Set
Actual Time 7:24 AM CST 4:55 PM CST
Civil Twilight 6:53 AM CST 5:26 PM CST
Nautical Twilight 6:18 AM CST 6:01 PM CST
Astronomical Twilight 5:45 AM CST 6:35 PM CST
Moon 1:21 PM CST (11/21) 12:35 AM CST (11/21)
Length of Visible Light 10h 32m
Length of Day
9h 30m
First Quarter, 62% of the Moon is Illuminated
Nov 21
First Quarter
Nov 28
Full
Dec 6
Last Quarter
Dec 13
New
Dec 19
First Quarter

Hourly Weather History & Observations

Time (CST) Temp. Windchill Dew Point Humidity Pressure Visibility Wind Dir Wind Speed Gust Speed Precip Events Conditions
12:15 AM 44.6 °F 39.2 °F 33.8 °F 66% 30.03 in 10.0 mi South 10.4 mph - N/A   Clear
12:35 AM 44.6 °F 39.2 °F 33.8 °F 66% 30.02 in 10.0 mi South 10.4 mph - N/A   Clear
12:55 AM 44.6 °F 39.7 °F 33.8 °F 66% 30.02 in 10.0 mi South 9.2 mph - N/A   Clear
1:15 AM 42.8 °F 37.0 °F 33.8 °F 70% 30.02 in 10.0 mi South 10.4 mph - N/A   Clear
1:35 AM 42.8 °F 37.0 °F 33.8 °F 70% 30.01 in 10.0 mi South 10.4 mph - N/A   Clear
1:55 AM 42.8 °F 35.8 °F 33.8 °F 70% 30.01 in 10.0 mi South 13.8 mph - N/A   Clear
2:15 AM 42.8 °F 36.6 °F 33.8 °F 70% 30.01 in 10.0 mi South 11.5 mph - N/A   Clear
2:35 AM 42.8 °F 37.0 °F 33.8 °F 70% 30.02 in 10.0 mi SSW 10.4 mph - N/A   Clear
2:55 AM 42.8 °F 37.0 °F 33.8 °F 70% 30.01 in 10.0 mi SSW 10.4 mph - N/A   Clear
3:15 AM 42.8 °F 37.0 °F 33.8 °F 70% 30.00 in 10.0 mi South 10.4 mph - N/A   Clear
3:35 AM 42.8 °F 37.5 °F 35.6 °F 76% 30.00 in 10.0 mi South 9.2 mph - N/A   Clear
3:55 AM 42.8 °F 38.0 °F 35.6 °F 76% 30.00 in 10.0 mi South 8.1 mph - N/A   Clear
4:15 AM 42.8 °F 39.3 °F 35.6 °F 76% 29.99 in 10.0 mi South 5.8 mph - N/A   Clear
4:35 AM 42.8 °F 38.0 °F 35.6 °F 76% 29.99 in 10.0 mi SSW 8.1 mph - N/A   Clear
4:55 AM 42.8 °F 38.0 °F 35.6 °F 76% 29.99 in 10.0 mi SSW 8.1 mph - N/A   Clear
5:15 AM 42.8 °F 37.5 °F 35.6 °F 76% 29.99 in 10.0 mi SSW 9.2 mph - N/A   Clear
5:35 AM 42.8 °F 36.6 °F 35.6 °F 76% 29.98 in 10.0 mi SSW 11.5 mph - N/A   Clear
5:55 AM 42.8 °F 36.6 °F 35.6 °F 76% 29.98 in 10.0 mi South 11.5 mph - N/A   Clear
6:15 AM 42.8 °F 36.6 °F 35.6 °F 76% 29.97 in 10.0 mi South 11.5 mph - N/A   Clear
6:35 AM 41.0 °F 34.7 °F 33.8 °F 76% 29.98 in 10.0 mi South 10.4 mph - N/A   Clear
6:55 AM 41.0 °F 34.7 °F 33.8 °F 76% 29.98 in 10.0 mi South 10.4 mph - N/A   Clear
7:15 AM 41.0 °F 35.2 °F 33.8 °F 76% 29.97 in 10.0 mi South 9.2 mph - N/A   Clear
7:35 AM 39.2 °F 33.0 °F 33.8 °F 81% 29.97 in 10.0 mi South 9.2 mph - N/A   Clear
7:55 AM 41.0 °F 33.9 °F 33.8 °F 76% 29.97 in 10.0 mi SSW 12.7 mph - N/A   Clear
8:15 AM 42.8 °F 35.8 °F 35.6 °F 76% 29.97 in 10.0 mi South 13.8 mph - N/A   Clear
8:35 AM 42.8 °F 36.6 °F 35.6 °F 76% 29.97 in 10.0 mi South 11.5 mph - N/A   Clear
8:55 AM 46.4 °F 40.7 °F 37.4 °F 71% 29.97 in 10.0 mi SSW 12.7 mph - N/A   Clear
9:15 AM 46.4 °F 41.1 °F 37.4 °F 71% 29.97 in 10.0 mi SSW 11.5 mph - N/A   Clear
9:35 AM 50.0 °F - 37.4 °F 62% 29.97 in 10.0 mi SSW 13.8 mph - N/A   Clear
9:55 AM 51.8 °F - 37.4 °F 58% 29.96 in 10.0 mi SSW 18.4 mph - N/A   Clear
10:15 AM 53.6 °F - 37.4 °F 54% 29.95 in 10.0 mi SSW 21.9 mph - N/A   Clear
10:35 AM 55.4 °F - 37.4 °F 51% 29.96 in 10.0 mi SSW 18.4 mph 25.3 mph N/A   Clear
10:55 AM 57.2 °F - 37.4 °F 48% 29.95 in 10.0 mi SSW 16.1 mph - N/A   Clear
11:15 AM 59.0 °F - 37.4 °F 45% 29.93 in 10.0 mi SSW 18.4 mph - N/A   Clear
11:35 AM 60.8 °F - 35.6 °F 39% 29.92 in 10.0 mi SSW 23.0 mph - N/A   Clear
11:55 AM 62.6 °F - 35.6 °F 37% 29.90 in 10.0 mi SSW 21.9 mph 25.3 mph N/A   Clear
12:15 PM 64.4 °F - 32.0 °F 30% 29.90 in 10.0 mi SSW 25.3 mph 29.9 mph N/A   Clear
12:35 PM 66.2 °F - 32.0 °F 28% 29.89 in 10.0 mi SSW 23.0 mph 26.5 mph N/A   Clear
12:55 PM 66.2 °F - 32.0 °F 28% 29.88 in 10.0 mi SSW 20.7 mph 29.9 mph N/A   Clear
1:15 PM 66.2 °F - 35.6 °F 32% 29.87 in 10.0 mi South 20.7 mph - N/A   Clear
1:35 PM 66.2 °F - 35.6 °F 32% 29.86 in 10.0 mi SSW 20.7 mph 27.6 mph N/A   Clear
1:55 PM 66.2 °F - 35.6 °F 32% 29.85 in 10.0 mi South 20.7 mph 26.5 mph N/A   Clear
2:15 PM 68.0 °F - 37.4 °F 33% 29.84 in 10.0 mi South 21.9 mph 29.9 mph N/A   Clear
2:35 PM 71.6 °F - 33.8 °F 25% 29.82 in 10.0 mi SSW 27.6 mph - N/A   Clear
2:55 PM 69.8 °F - 33.8 °F 27% 29.81 in 10.0 mi SSW 23.0 mph 32.2 mph N/A   Clear
3:15 PM 69.8 °F - 33.8 °F 27% 29.80 in 10.0 mi SSW 23.0 mph 32.2 mph N/A   Clear
3:35 PM 69.8 °F - 33.8 °F 27% 29.80 in 10.0 mi SSW 23.0 mph 28.8 mph N/A   Clear
3:55 PM 69.8 °F - 35.6 °F 28% 29.80 in 10.0 mi SSW 20.7 mph 27.6 mph N/A   Clear
4:15 PM 66.2 °F - 37.4 °F 35% 29.80 in 10.0 mi SSW 18.4 mph 24.2 mph N/A   Clear
4:35 PM 66.2 °F - 39.2 °F 37% 29.80 in 10.0 mi SSW 15.0 mph 21.9 mph N/A   Clear
4:55 PM 64.4 °F - 39.2 °F 40% 29.80 in 10.0 mi SSW 17.3 mph 23.0 mph N/A   Clear
5:15 PM 62.6 °F - 39.2 °F 42% 29.79 in 10.0 mi South 12.7 mph - N/A   Clear
5:35 PM 60.8 °F - 39.2 °F 45% 29.79 in 10.0 mi South 10.4 mph - N/A   Clear
5:55 PM 60.8 °F - 41.0 °F 48% 29.79 in 10.0 mi South 10.4 mph - N/A   Clear
6:15 PM 59.0 °F - 41.0 °F 51% 29.79 in 10.0 mi South 12.7 mph - N/A   Clear
6:35 PM 59.0 °F - 39.2 °F 48% 29.78 in 10.0 mi South 12.7 mph - N/A   Clear
6:55 PM 60.8 °F - 39.2 °F 45% 29.78 in 10.0 mi South 15.0 mph - N/A   Clear
7:15 PM 60.8 °F - 39.2 °F 45% 29.77 in 10.0 mi South 17.3 mph 21.9 mph N/A   Clear
7:35 PM 60.8 °F - 39.2 °F 45% 29.77 in 10.0 mi SSW 17.3 mph 23.0 mph N/A   Clear
7:55 PM 59.0 °F - 39.2 °F 48% 29.76 in 10.0 mi SSW 18.4 mph - N/A   Clear
8:15 PM 60.8 °F - 39.2 °F 45% 29.75 in 10.0 mi SSW 20.7 mph 27.6 mph N/A   Clear
8:35 PM 59.0 °F - 39.2 °F 48% 29.75 in 10.0 mi SSW 18.4 mph 26.5 mph N/A   Clear
8:55 PM 57.2 °F - 39.2 °F 51% 29.75 in 10.0 mi SSW 18.4 mph 24.2 mph N/A   Clear
9:15 PM 57.2 °F - 39.2 °F 51% 29.75 in 10.0 mi SSW 18.4 mph 21.9 mph N/A   Clear
9:35 PM 57.2 °F - 41.0 °F 55% 29.75 in 10.0 mi SSW 21.9 mph 26.5 mph N/A   Clear
9:55 PM 57.2 °F - 41.0 °F 55% 29.75 in 10.0 mi SSW 19.6 mph 26.5 mph N/A   Clear
10:15 PM 57.2 °F - 42.8 °F 59% 29.74 in 10.0 mi SSW 18.4 mph 24.2 mph N/A   Clear
10:35 PM 57.2 °F - 42.8 °F 59% 29.74 in 10.0 mi SSW 18.4 mph - N/A   Clear
10:55 PM 55.4 °F - 42.8 °F 63% 29.74 in 10.0 mi SSW 13.8 mph - N/A   Clear
11:15 PM 55.4 °F - 42.8 °F 63% 29.73 in 10.0 mi South 10.4 mph - N/A   Clear
11:35 PM 53.6 °F - 42.8 °F 67% 29.73 in 10.0 mi South 11.5 mph - N/A   Clear
11:55 PM 53.6 °F - 42.8 °F 67% 29.73 in 10.0 mi SSW 12.7 mph - N/A   Clear